EN

Hourly Weather Bolshoe Hodyashevo

Today, 21 October, Wednesday

Time Temperature Precipitation Wind Pressure Humidity
00:00 +1°C° 0.1 mm 3 mps 751 mmHg 95%
01:00 +1°C° 0 mm 3 mps 751 mmHg 93%
02:00 -1°C° 0 mm 4 mps 751 mmHg 90%
03:00 -1°C° 0 mm 4 mps 751 mmHg 88%
04:00 -1°C° 0 mm 4 mps 751 mmHg 90%
05:00 -2°C° 0 mm 4 mps 751 mmHg 91%
06:00 -2°C° 0 mm 5 mps 751 mmHg 92%
07:00 -2°C° 0.1 mm 6 mps 751 mmHg 85%
08:00 -2°C° 0.1 mm 6 mps 752 mmHg 78%
09:00 -1°C° 0.1 mm 7 mps 752 mmHg 72%
10:00 -1°C° 0 mm 7 mps 752 mmHg 69%
11:00 -1°C° 0 mm 7 mps 752 mmHg 67%
12:00 -1°C° 0 mm 7 mps 753 mmHg 64%
13:00 -1°C° 0 mm 7 mps 753 mmHg 66%
14:00 -1°C° 0 mm 7 mps 753 mmHg 67%
15:00 -1°C° 0 mm 7 mps 754 mmHg 68%
16:00 -2°C° 0 mm 6 mps 754 mmHg 72%
17:00 -2°C° 0 mm 6 mps 754 mmHg 76%
18:00 -2°C° 0 mm 5 mps 754 mmHg 80%
19:00 -2°C° 0 mm 5 mps 754 mmHg 80%
20:00 -4°C° 0 mm 5 mps 755 mmHg 80%
21:00 -4°C° 0 mm 5 mps 755 mmHg 81%
22:00 -4°C° 0 mm 5 mps 755 mmHg 82%
23:00 -4°C° 0 mm 5 mps 755 mmHg 82%

Tomorrow, 22 October, Thursday

Time Temperature Precipitation Wind Pressure Humidity
00:00 -3°C° 0 mm 4 mps 755 mmHg 83%
01:00 -3°C° 0 mm 4 mps 755 mmHg 83%
02:00 -3°C° 0 mm 4 mps 755 mmHg 83%
03:00 -3°C° 0 mm 4 mps 756 mmHg 83%
04:00 -4°C° 0 mm 4 mps 756 mmHg 84%
05:00 -4°C° 0 mm 4 mps 756 mmHg 84%
06:00 -4°C° 0 mm 4 mps 756 mmHg 85%
07:00 -3°C° 0 mm 4 mps 756 mmHg 80%
08:00 -2°C° 0 mm 5 mps 756 mmHg 76%
09:00 -1°C° 0 mm 5 mps 756 mmHg 71%
10:00 -1°C° 0 mm 5 mps 756 mmHg 68%
11:00 0°C° 0 mm 5 mps 756 mmHg 64%
12:00 +1°C° 0 mm 5 mps 756 mmHg 61%
13:00 +1°C° 0 mm 4 mps 756 mmHg 62%
14:00 0°C° 0 mm 4 mps 756 mmHg 62%
15:00 0°C° 0 mm 4 mps 757 mmHg 63%
16:00 0°C° 0 mm 3 mps 756 mmHg 69%
17:00 -1°C° 0 mm 2 mps 756 mmHg 74%
18:00 -2°C° 0 mm 2 mps 756 mmHg 80%
19:00 0°C° 0 mm 1 mps 756 mmHg 81%
20:00 0°C° 0 mm 1 mps 756 mmHg 82%
21:00 0°C° 0 mm 1 mps 756 mmHg 83%
22:00 0°C° 0 mm 1 mps 756 mmHg 82%
23:00 0°C° 0 mm 1 mps 756 mmHg 82%

Day after tomorrow, 23 October, Friday

Time Temperature Precipitation Wind Pressure Humidity
00:00 0°C° 0 mm 1 mps 756 mmHg 82%
01:00 0°C° 0 mm 1 mps 755 mmHg 82%
02:00 0°C° 0 mm 1 mps 755 mmHg 82%
03:00 -2°C° 0 mm 2 mps 755 mmHg 82%
04:00 -2°C° 0 mm 2 mps 754 mmHg 83%
05:00 -2°C° 0 mm 3 mps 754 mmHg 84%
06:00 -1°C° 0 mm 3 mps 753 mmHg 85%
07:00 -1°C° 0.1 mm 3 mps 753 mmHg 88%
08:00 -1°C° 0.1 mm 4 mps 753 mmHg 92%
09:00 0°C° 0.1 mm 4 mps 752 mmHg 95%
10:00 0°C° 0.2 mm 5 mps 752 mmHg 96%
11:00 0°C° 0.2 mm 5 mps 751 mmHg 96%
12:00 +1°C° 0.2 mm 6 mps 751 mmHg 96%
13:00 +1°C° 0.3 mm 6 mps 750 mmHg 96%
14:00 +1°C° 0.3 mm 6 mps 750 mmHg 95%
15:00 +1°C° 0.3 mm 6 mps 749 mmHg 95%
16:00 +2°C° 0.6 mm 6 mps 749 mmHg 95%
17:00 +2°C° 0.6 mm 5 mps 748 mmHg 96%
18:00 +2°C° 0.6 mm 5 mps 748 mmHg 96%
19:00 +2°C° 0.5 mm 5 mps 748 mmHg 96%
20:00 +3°C° 0.5 mm 4 mps 747 mmHg 97%
21:00 +3°C° 0.5 mm 3 mps 747 mmHg 98%
22:00 +4°C° 0 mm 3 mps 747 mmHg 98%
23:00 +4°C° 0 mm 3 mps 746 mmHg 98%

24 October, Saturday

Time Temperature Precipitation Wind Pressure Humidity
00:00 +5°C° 0 mm 3 mps 746 mmHg 98%
01:00 +5°C° 0.7 mm 3 mps 745 mmHg 97%
02:00 +7°C° 0.7 mm 3 mps 745 mmHg 97%
03:00 +6°C° 0.7 mm 4 mps 744 mmHg 97%
04:00 +6°C° 1.2 mm 4 mps 743 mmHg 97%
05:00 +6°C° 1.2 mm 4 mps 743 mmHg 97%
06:00 +6°C° 1.2 mm 4 mps 742 mmHg 97%
07:00 +6°C° 1.3 mm 4 mps 742 mmHg 97%
08:00 +7°C° 1.3 mm 3 mps 741 mmHg 98%
09:00 +7°C° 1.3 mm 3 mps 741 mmHg 98%
10:00 +7°C° 0 mm 4 mps 742 mmHg 94%
11:00 +8°C° 0 mm 5 mps 742 mmHg 90%
12:00 +9°C° 0 mm 6 mps 743 mmHg 86%
13:00 +9°C° 0 mm 6 mps 744 mmHg 85%
14:00 +9°C° 0 mm 6 mps 744 mmHg 84%
15:00 +9°C° 0 mm 6 mps 745 mmHg 83%
16:00 +8°C° 0 mm 5 mps 746 mmHg 85%
17:00 +8°C° 0 mm 4 mps 746 mmHg 87%
18:00 +7°C° 0 mm 4 mps 747 mmHg 89%
19:00 +6°C° 0 mm 4 mps 747 mmHg 90%
20:00 +6°C° 0 mm 4 mps 748 mmHg 91%
21:00 +6°C° 0 mm 4 mps 748 mmHg 92%
22:00 +5°C° 0 mm 3 mps 749 mmHg 93%
23:00 +5°C° 0 mm 3 mps 749 mmHg 94%

25 October, Sunday

Time Temperature Precipitation Wind Pressure Humidity
00:00 +5°C° 0 mm 3 mps 749 mmHg 94%
01:00 +5°C° 0 mm 2 mps 750 mmHg 94%
02:00 +5°C° 0 mm 2 mps 750 mmHg 95%
03:00 +5°C° 0 mm 2 mps 750 mmHg 95%
04:00 +5°C° 0 mm 2 mps 750 mmHg 95%
05:00 +6°C° 0 mm 1 mps 750 mmHg 95%
06:00 +7°C° 0 mm 1 mps 751 mmHg 95%
07:00 +7°C° 0 mm 1 mps 751 mmHg 93%
08:00 +7°C° 0 mm 1 mps 751 mmHg 92%
09:00 +8°C° 0 mm 1 mps 751 mmHg 91%
10:00 +8°C° 0 mm 1 mps 751 mmHg 89%
11:00 +9°C° 0 mm 1 mps 751 mmHg 87%
12:00 +8°C° 0 mm 2 mps 751 mmHg 85%
13:00 +9°C° 0 mm 2 mps 751 mmHg 85%
14:00 +9°C° 0 mm 2 mps 751 mmHg 85%
15:00 +9°C° 0 mm 2 mps 751 mmHg 85%
16:00 +8°C° 0 mm 2 mps 751 mmHg 87%
17:00 +8°C° 0 mm 2 mps 751 mmHg 89%
18:00 +7°C° 0 mm 3 mps 750 mmHg 90%
19:00 +7°C° 0 mm 3 mps 750 mmHg 91%
20:00 +7°C° 0 mm 3 mps 750 mmHg 92%
21:00 +7°C° 0 mm 3 mps 750 mmHg 93%
22:00 +7°C° 0.3 mm 3 mps 749 mmHg 94%
23:00 +7°C° 0.3 mm 3 mps 749 mmHg 95%

26 October, Monday

Time Temperature Precipitation Wind Pressure Humidity
00:00 +6°C° 0.3 mm 4 mps 748 mmHg 96%
01:00 +7°C° 0.3 mm 4 mps 748 mmHg 96%
02:00 +7°C° 0.3 mm 4 mps 748 mmHg 95%
03:00 +7°C° 0.3 mm 4 mps 747 mmHg 95%
04:00 +7°C° 0.4 mm 4 mps 747 mmHg 96%
05:00 +7°C° 0.4 mm 4 mps 747 mmHg 96%
06:00 +8°C° 0.4 mm 3 mps 747 mmHg 97%
07:00 +8°C° 0.3 mm 3 mps 747 mmHg 97%
08:00 +8°C° 0.3 mm 2 mps 747 mmHg 97%
09:00 +9°C° 0.3 mm 1 mps 747 mmHg 97%
10:00 +10°C° 0 mm 1 mps 747 mmHg 95%
11:00 +10°C° 0 mm 1 mps 748 mmHg 92%
12:00 +10°C° 0 mm 2 mps 748 mmHg 90%
13:00 +9°C° 0 mm 2 mps 749 mmHg 90%
14:00 +9°C° 0 mm 3 mps 749 mmHg 91%
15:00 +9°C° 0 mm 3 mps 749 mmHg 92%
16:00 +7°C° 0 mm 4 mps 750 mmHg 91%
17:00 +7°C° 0 mm 4 mps 751 mmHg 91%
18:00 +7°C° 0 mm 5 mps 751 mmHg 91%
19:00 +6°C° 0 mm 5 mps 752 mmHg 89%
20:00 +6°C° 0 mm 5 mps 753 mmHg 88%
21:00 +5°C° 0 mm 6 mps 753 mmHg 87%
22:00 +4°C° 0 mm 6 mps 754 mmHg 87%
23:00 +3°C° 0 mm 6 mps 755 mmHg 86%

27 October, Tuesday

Time Temperature Precipitation Wind Pressure Humidity
00:00 +2°C° 0 mm 6 mps 755 mmHg 85%
01:00 +1°C° 0 mm 5 mps 756 mmHg 86%
02:00 +1°C° 0 mm 5 mps 756 mmHg 87%
03:00 0°C° 0 mm 5 mps 757 mmHg 88%
04:00 0°C° 0 mm 4 mps 758 mmHg 88%
05:00 -1°C° 0 mm 4 mps 758 mmHg 87%
06:00 -1°C° 0 mm 4 mps 759 mmHg 87%
07:00 -1°C° 0 mm 4 mps 759 mmHg 85%
08:00 -1°C° 0 mm 4 mps 760 mmHg 84%
09:00 -1°C° 0 mm 4 mps 760 mmHg 83%
10:00 -1°C° 0 mm 4 mps 761 mmHg 81%
11:00 0°C° 0 mm 4 mps 761 mmHg 79%
12:00 0°C° 0 mm 4 mps 761 mmHg 77%
13:00 0°C° 0 mm 4 mps 762 mmHg 76%
14:00 +1°C° 0 mm 4 mps 762 mmHg 74%
15:00 +2°C° 0 mm 3 mps 762 mmHg 73%
16:00 +1°C° 0 mm 3 mps 763 mmHg 76%
17:00 0°C° 0 mm 3 mps 763 mmHg 80%
18:00 +1°C° 0 mm 2 mps 763 mmHg 83%
19:00 -1°C° 0 mm 2 mps 763 mmHg 84%
20:00 -1°C° 0 mm 2 mps 764 mmHg 84%
21:00 +1°C° 0 mm 1 mps 764 mmHg 85%
22:00 +1°C° 0 mm 1 mps 764 mmHg 84%
23:00 +1°C° 0 mm 1 mps 764 mmHg 83%
Show more